Year,Month,Day,Hour,Minute,Value (Times are PST for temperature in C)
2013,07,22,00,00,13.70
2013,07,22,00,01,13.60
2013,07,22,00,02,13.60
2013,07,22,00,03,13.60
2013,07,22,00,04,13.60
2013,07,22,00,05,13.60
2013,07,22,00,06,13.60
2013,07,22,00,07,13.60
2013,07,22,00,08,13.60
2013,07,22,00,09,13.60
2013,07,22,00,10,13.60
2013,07,22,00,11,13.70
2013,07,22,00,12,13.70
2013,07,22,00,13,13.70
2013,07,22,00,14,13.70
2013,07,22,00,15,13.70
2013,07,22,00,16,13.70
2013,07,22,00,17,13.70
2013,07,22,00,18,13.70
2013,07,22,00,19,13.60
2013,07,22,00,20,13.60
2013,07,22,00,21,13.60
2013,07,22,00,22,13.60
2013,07,22,00,23,13.60
2013,07,22,00,24,13.60
2013,07,22,00,25,13.70
2013,07,22,00,26,13.70
2013,07,22,00,27,13.70
2013,07,22,00,28,13.70
2013,07,22,00,29,13.70
2013,07,22,00,30,13.70
2013,07,22,00,31,13.70
2013,07,22,00,32,13.70
2013,07,22,00,33,13.70
2013,07,22,00,34,13.70
2013,07,22,00,35,13.70
2013,07,22,00,36,13.70
2013,07,22,00,37,13.70
2013,07,22,00,38,13.70
2013,07,22,00,39,13.70
2013,07,22,00,40,13.70
2013,07,22,00,41,13.70
2013,07,22,00,42,13.70
2013,07,22,00,43,13.70
2013,07,22,00,44,13.70
2013,07,22,00,45,13.70
2013,07,22,00,46,13.70
2013,07,22,00,47,13.70
2013,07,22,00,48,13.70
2013,07,22,00,49,13.70
2013,07,22,00,50,13.70
2013,07,22,00,51,13.70
2013,07,22,00,52,13.70
2013,07,22,00,53,13.70
2013,07,22,00,54,13.70
2013,07,22,00,55,13.70
2013,07,22,00,56,13.70
2013,07,22,00,57,13.70
2013,07,22,00,58,13.70
2013,07,22,00,59,13.70
2013,07,22,01,00,13.70
2013,07,22,01,01,13.70
2013,07,22,01,02,13.70
2013,07,22,01,03,13.70
2013,07,22,01,04,13.70
2013,07,22,01,05,13.70
2013,07,22,01,06,13.70
2013,07,22,01,07,13.70
2013,07,22,01,08,13.70
2013,07,22,01,09,13.70
2013,07,22,01,10,13.70
2013,07,22,01,11,13.70
2013,07,22,01,12,13.70
2013,07,22,01,13,13.70
2013,07,22,01,14,13.70
2013,07,22,01,15,13.70
2013,07,22,01,16,13.70
2013,07,22,01,17,13.70
2013,07,22,01,18,13.70
2013,07,22,01,19,13.70
2013,07,22,01,20,13.70
2013,07,22,01,21,13.60
2013,07,22,01,22,13.60
2013,07,22,01,23,13.60
2013,07,22,01,24,13.60
2013,07,22,01,25,13.60
2013,07,22,01,26,13.50
2013,07,22,01,27,13.50
2013,07,22,01,28,13.50
2013,07,22,01,29,13.50
2013,07,22,01,30,13.50
2013,07,22,01,31,13.50
2013,07,22,01,32,13.50
2013,07,22,01,33,13.50
2013,07,22,01,34,13.50
2013,07,22,01,35,13.50
2013,07,22,01,36,13.50
2013,07,22,01,37,13.50
2013,07,22,01,38,13.50
2013,07,22,01,39,13.40
2013,07,22,01,40,13.40
2013,07,22,01,41,13.40
2013,07,22,01,42,13.40
2013,07,22,01,43,13.40
2013,07,22,01,44,13.40
2013,07,22,01,45,13.30
2013,07,22,01,46,13.30
2013,07,22,01,47,13.30
2013,07,22,01,48,13.30
2013,07,22,01,49,13.30
2013,07,22,01,50,13.30
2013,07,22,01,51,13.30
2013,07,22,01,52,13.30
2013,07,22,01,53,13.30
2013,07,22,01,54,13.30
2013,07,22,01,55,13.30
2013,07,22,01,56,13.30
2013,07,22,01,57,13.30
2013,07,22,01,58,13.30
2013,07,22,01,59,13.30
2013,07,22,02,00,13.30
2013,07,22,02,01,13.30
2013,07,22,02,02,13.30
2013,07,22,02,03,13.30
2013,07,22,02,04,13.30
2013,07,22,02,05,13.30
2013,07,22,02,06,13.30
2013,07,22,02,07,13.30
2013,07,22,02,08,13.30
2013,07,22,02,09,13.30
2013,07,22,02,10,13.30
2013,07,22,02,11,13.30
2013,07,22,02,12,13.30
2013,07,22,02,13,13.30
2013,07,22,02,14,13.30
2013,07,22,02,15,13.30
2013,07,22,02,16,13.20
2013,07,22,02,17,13.20
2013,07,22,02,18,13.20
2013,07,22,02,19,13.20
2013,07,22,02,20,13.20
2013,07,22,02,21,13.20
2013,07,22,02,22,13.20
2013,07,22,02,23,13.20
2013,07,22,02,24,13.10
2013,07,22,02,25,13.10
2013,07,22,02,26,13.10
2013,07,22,02,27,13.10
2013,07,22,02,28,13.10
2013,07,22,02,29,13.10
2013,07,22,02,30,13.10
2013,07,22,02,31,13.10
2013,07,22,02,32,13.10
2013,07,22,02,33,13.10
2013,07,22,02,34,13.10
2013,07,22,02,35,13.10
2013,07,22,02,36,13.10
2013,07,22,02,37,13.10
2013,07,22,02,38,13.10
2013,07,22,02,39,13.00
2013,07,22,02,40,13.00
2013,07,22,02,41,13.00
2013,07,22,02,42,13.00
2013,07,22,02,43,13.00
2013,07,22,02,44,13.00
2013,07,22,02,45,13.10
2013,07,22,02,46,13.10
2013,07,22,02,47,13.10
2013,07,22,02,48,13.00
2013,07,22,02,49,13.00
2013,07,22,02,50,13.00
2013,07,22,02,51,13.00
2013,07,22,02,52,13.00
2013,07,22,02,53,13.00
2013,07,22,02,54,13.00
2013,07,22,02,55,13.00
2013,07,22,02,56,13.00
2013,07,22,02,57,13.00
2013,07,22,02,58,13.00
2013,07,22,02,59,13.00
2013,07,22,03,00,13.00
2013,07,22,03,01,13.00
2013,07,22,03,02,13.00
2013,07,22,03,03,13.00
2013,07,22,03,04,13.00
2013,07,22,03,05,13.00
2013,07,22,03,06,13.00
2013,07,22,03,07,12.90
2013,07,22,03,08,12.90
2013,07,22,03,09,12.90
2013,07,22,03,10,12.90
2013,07,22,03,11,12.80
2013,07,22,03,12,12.80
2013,07,22,03,13,12.80
2013,07,22,03,14,12.80
2013,07,22,03,15,12.80
2013,07,22,03,16,12.80
2013,07,22,03,17,12.90
2013,07,22,03,18,12.90
2013,07,22,03,19,12.90
2013,07,22,03,20,12.90
2013,07,22,03,21,12.90
2013,07,22,03,22,12.90
2013,07,22,03,23,12.90
2013,07,22,03,24,12.90
2013,07,22,03,25,12.90
2013,07,22,03,26,12.90
2013,07,22,03,27,12.90
2013,07,22,03,28,12.90
2013,07,22,03,29,12.90
2013,07,22,03,30,12.90
2013,07,22,03,31,12.90
2013,07,22,03,32,12.80
2013,07,22,03,33,12.80
2013,07,22,03,34,12.80
2013,07,22,03,35,12.80
2013,07,22,03,36,12.80
2013,07,22,03,37,12.80
2013,07,22,03,38,12.80
2013,07,22,03,39,12.80
2013,07,22,03,40,12.80
2013,07,22,03,41,12.80
2013,07,22,03,42,12.80
2013,07,22,03,43,12.80
2013,07,22,03,44,12.80
2013,07,22,03,45,12.80
2013,07,22,03,46,12.80
2013,07,22,03,47,12.80
2013,07,22,03,48,12.80
2013,07,22,03,49,12.80
2013,07,22,03,50,12.80
2013,07,22,03,51,12.70
2013,07,22,03,52,12.70
2013,07,22,03,53,12.70
2013,07,22,03,54,12.70
2013,07,22,03,55,12.60
2013,07,22,03,56,12.60
2013,07,22,03,57,12.60
2013,07,22,03,58,12.60
2013,07,22,03,59,12.60
2013,07,22,04,00,12.50
2013,07,22,04,01,12.50
2013,07,22,04,02,12.50
2013,07,22,04,03,12.50
2013,07,22,04,04,12.50
2013,07,22,04,05,12.50
2013,07,22,04,06,12.50
2013,07,22,04,07,12.40
2013,07,22,04,08,12.40
2013,07,22,04,09,12.40
2013,07,22,04,10,12.40
2013,07,22,04,11,12.40
2013,07,22,04,12,12.40
2013,07,22,04,13,12.40
2013,07,22,04,14,12.40
2013,07,22,04,15,12.40
2013,07,22,04,16,12.40
2013,07,22,04,17,12.30
2013,07,22,04,18,12.30
2013,07,22,04,19,12.30
2013,07,22,04,20,12.30
2013,07,22,04,21,12.30
2013,07,22,04,22,12.30
2013,07,22,04,23,12.30
2013,07,22,04,24,12.30
2013,07,22,04,25,12.30
2013,07,22,04,26,12.30
2013,07,22,04,27,12.30
2013,07,22,04,28,12.30
2013,07,22,04,29,12.30
2013,07,22,04,30,12.30
2013,07,22,04,31,12.30
2013,07,22,04,32,12.30
2013,07,22,04,33,12.30
2013,07,22,04,34,12.30
2013,07,22,04,35,12.30
2013,07,22,04,36,12.30
2013,07,22,04,37,12.30
2013,07,22,04,38,12.30
2013,07,22,04,39,12.30
2013,07,22,04,40,12.30
2013,07,22,04,41,12.30
2013,07,22,04,42,12.30
2013,07,22,04,43,12.30
2013,07,22,04,44,12.30
2013,07,22,04,45,12.30
2013,07,22,04,46,12.30
2013,07,22,04,47,12.30
2013,07,22,04,48,12.30
2013,07,22,04,49,12.30
2013,07,22,04,50,12.30
2013,07,22,04,51,12.30
2013,07,22,04,52,12.30
2013,07,22,04,53,12.30
2013,07,22,04,54,12.30
2013,07,22,04,55,12.20
2013,07,22,04,56,12.20
2013,07,22,04,57,12.20
2013,07,22,04,58,12.20
2013,07,22,04,59,12.20
2013,07,22,05,00,12.20
2013,07,22,05,01,12.20
2013,07,22,05,02,12.20
2013,07,22,05,03,12.20
2013,07,22,05,04,12.10
2013,07,22,05,05,12.10
2013,07,22,05,06,12.10
2013,07,22,05,07,12.10
2013,07,22,05,08,12.10
2013,07,22,05,09,12.10
2013,07,22,05,10,12.10
2013,07,22,05,11,12.10
2013,07,22,05,12,12.10
2013,07,22,05,13,12.10
2013,07,22,05,14,12.10
2013,07,22,05,15,12.10
2013,07,22,05,16,12.00
2013,07,22,05,17,12.00
2013,07,22,05,18,12.00
2013,07,22,05,19,12.00
2013,07,22,05,20,12.00
2013,07,22,05,21,12.00
2013,07,22,05,22,12.00
2013,07,22,05,23,12.00
2013,07,22,05,24,11.90
2013,07,22,05,25,11.90
2013,07,22,05,26,11.90
2013,07,22,05,27,11.90
2013,07,22,05,28,11.80
2013,07,22,05,29,11.80
2013,07,22,05,30,11.80
2013,07,22,05,31,11.80
2013,07,22,05,32,11.80
2013,07,22,05,33,11.80
2013,07,22,05,34,11.80
2013,07,22,05,35,11.80
2013,07,22,05,36,11.80
2013,07,22,05,37,11.80
2013,07,22,05,38,11.80
2013,07,22,05,39,11.80
2013,07,22,05,40,11.80
2013,07,22,05,41,11.70
2013,07,22,05,42,11.70
2013,07,22,05,43,11.70
2013,07,22,05,44,11.70
2013,07,22,05,45,11.70
2013,07,22,05,46,11.70
2013,07,22,05,47,11.70
2013,07,22,05,48,11.70
2013,07,22,05,49,11.70
2013,07,22,05,50,11.70
2013,07,22,05,51,11.60
2013,07,22,05,52,11.60
2013,07,22,05,53,11.60
2013,07,22,05,54,11.60
2013,07,22,05,55,11.60
2013,07,22,05,56,11.60
2013,07,22,05,57,11.60
2013,07,22,05,58,11.60
2013,07,22,05,59,11.60
2013,07,22,06,00,11.60
2013,07,22,06,01,11.60
2013,07,22,06,02,11.60
2013,07,22,06,03,11.60
2013,07,22,06,04,11.60
2013,07,22,06,05,11.60
2013,07,22,06,06,11.60
2013,07,22,06,07,11.60
2013,07,22,06,08,11.60
2013,07,22,06,09,11.60
2013,07,22,06,10,11.60
2013,07,22,06,11,11.60
2013,07,22,06,12,11.60
2013,07,22,06,13,11.60
2013,07,22,06,14,11.60
2013,07,22,06,15,11.60
2013,07,22,06,16,11.60
2013,07,22,06,17,11.60
2013,07,22,06,18,11.60
2013,07,22,06,19,11.60
2013,07,22,06,20,11.60
2013,07,22,06,21,11.60
2013,07,22,06,22,11.60
2013,07,22,06,23,11.60
2013,07,22,06,24,11.60
2013,07,22,06,25,11.60
2013,07,22,06,26,11.60
2013,07,22,06,27,11.60
2013,07,22,06,28,11.60
2013,07,22,06,29,11.60
2013,07,22,06,30,11.60
2013,07,22,06,31,11.70
2013,07,22,06,32,11.70
2013,07,22,06,33,11.80
2013,07,22,06,34,11.80
2013,07,22,06,35,11.80
2013,07,22,06,36,11.80
2013,07,22,06,37,11.90
2013,07,22,06,38,11.90
2013,07,22,06,39,12.00
2013,07,22,06,40,12.00
2013,07,22,06,41,12.00
2013,07,22,06,42,12.00
2013,07,22,06,43,12.00
2013,07,22,06,44,12.00
2013,07,22,06,45,12.10
2013,07,22,06,46,12.10
2013,07,22,06,47,12.10
2013,07,22,06,48,12.20
2013,07,22,06,49,12.20
2013,07,22,06,50,12.30
2013,07,22,06,51,12.30
2013,07,22,06,52,12.30
2013,07,22,06,53,12.30
2013,07,22,06,54,12.40
2013,07,22,06,55,12.40
2013,07,22,06,56,12.50
2013,07,22,06,57,12.50
2013,07,22,06,58,12.60
2013,07,22,06,59,12.70
2013,07,22,07,00,12.80
2013,07,22,07,01,12.90
2013,07,22,07,02,13.00
2013,07,22,07,03,13.10
2013,07,22,07,04,13.20
2013,07,22,07,05,13.30
2013,07,22,07,06,13.30
2013,07,22,07,07,13.50
2013,07,22,07,08,13.50
2013,07,22,07,09,13.60
2013,07,22,07,10,13.70
2013,07,22,07,11,13.70
2013,07,22,07,12,13.70
2013,07,22,07,13,13.70
2013,07,22,07,14,13.80
2013,07,22,07,15,13.80
2013,07,22,07,16,13.90
2013,07,22,07,17,13.90
2013,07,22,07,18,14.00
2013,07,22,07,19,14.10
2013,07,22,07,20,14.20
2013,07,22,07,21,14.30
2013,07,22,07,22,14.40
2013,07,22,07,23,14.60
2013,07,22,07,24,14.70
2013,07,22,07,25,14.80
2013,07,22,07,26,14.90
2013,07,22,07,27,14.90
2013,07,22,07,28,15.00
2013,07,22,07,29,15.00
2013,07,22,07,30,15.00
2013,07,22,07,31,15.10
2013,07,22,07,32,15.10
2013,07,22,07,33,15.20
2013,07,22,07,34,15.20
2013,07,22,07,35,15.20
2013,07,22,07,36,15.30
2013,07,22,07,37,15.30
2013,07,22,07,38,15.40
2013,07,22,07,39,15.50
2013,07,22,07,40,15.50
2013,07,22,07,41,15.60
2013,07,22,07,42,15.70
2013,07,22,07,43,15.80
2013,07,22,07,44,15.80
2013,07,22,07,45,15.90
2013,07,22,07,46,15.90
2013,07,22,07,47,16.00
2013,07,22,07,48,16.10
2013,07,22,07,49,16.10
2013,07,22,07,50,16.20
2013,07,22,07,51,16.30
2013,07,22,07,52,16.30
2013,07,22,07,53,16.40
2013,07,22,07,54,16.40
2013,07,22,07,55,16.50
2013,07,22,07,56,16.60
2013,07,22,07,57,16.70
2013,07,22,07,58,16.70
2013,07,22,07,59,16.70
2013,07,22,08,00,16.80
2013,07,22,08,01,16.80
2013,07,22,08,02,16.90
2013,07,22,08,03,16.90
2013,07,22,08,04,17.00
2013,07,22,08,05,17.00
2013,07,22,08,06,17.10
2013,07,22,08,07,17.20
2013,07,22,08,08,17.20
2013,07,22,08,09,17.30
2013,07,22,08,10,17.30
2013,07,22,08,11,17.20
2013,07,22,08,12,17.00
2013,07,22,08,13,16.90
2013,07,22,08,14,16.70
2013,07,22,08,15,16.60
2013,07,22,08,16,16.40
2013,07,22,08,17,16.30
2013,07,22,08,18,16.10
2013,07,22,08,19,16.00
2013,07,22,08,20,15.90
2013,07,22,08,21,15.80
2013,07,22,08,22,15.70
2013,07,22,08,23,15.70
2013,07,22,08,24,15.60
2013,07,22,08,25,15.60
2013,07,22,08,26,15.70
2013,07,22,08,27,15.70
2013,07,22,08,28,15.60
2013,07,22,08,29,15.60
2013,07,22,08,30,15.60
2013,07,22,08,31,15.60
2013,07,22,08,32,15.60
2013,07,22,08,33,15.50
2013,07,22,08,34,15.50
2013,07,22,08,35,15.50
2013,07,22,08,36,15.50
2013,07,22,08,37,15.50
2013,07,22,08,38,15.50
2013,07,22,08,39,15.50
2013,07,22,08,40,15.50
2013,07,22,08,41,15.50
2013,07,22,08,42,15.50
2013,07,22,08,43,15.40
2013,07,22,08,44,15.40
2013,07,22,08,45,15.40
2013,07,22,08,46,15.40
2013,07,22,08,47,15.40
2013,07,22,08,48,15.40
2013,07,22,08,49,15.40
2013,07,22,08,50,15.40
2013,07,22,08,51,15.40
2013,07,22,08,52,15.40
2013,07,22,08,53,15.50
2013,07,22,08,54,15.50
2013,07,22,08,55,15.60
2013,07,22,08,56,15.70
2013,07,22,08,57,15.80
2013,07,22,08,58,15.80
2013,07,22,08,59,15.80
2013,07,22,09,00,15.80
2013,07,22,09,01,15.90
2013,07,22,09,02,15.90
2013,07,22,09,03,15.90
2013,07,22,09,04,15.90
2013,07,22,09,05,15.90
2013,07,22,09,06,15.90
2013,07,22,09,07,16.00
2013,07,22,09,08,16.10
2013,07,22,09,09,16.10
2013,07,22,09,10,16.10
2013,07,22,09,11,16.10
2013,07,22,09,12,16.10
2013,07,22,09,13,16.10
2013,07,22,09,14,16.10
2013,07,22,09,15,16.10
2013,07,22,09,16,16.10
2013,07,22,09,17,16.00
2013,07,22,09,18,15.90
2013,07,22,09,19,15.80
2013,07,22,09,20,15.80
2013,07,22,09,21,15.80
2013,07,22,09,22,15.80
2013,07,22,09,23,15.80
2013,07,22,09,24,15.80
2013,07,22,09,25,15.80
2013,07,22,09,26,15.80
2013,07,22,09,27,15.90
2013,07,22,09,28,16.00
2013,07,22,09,29,16.20
2013,07,22,09,30,16.30
2013,07,22,09,31,16.40
2013,07,22,09,32,16.40
2013,07,22,09,33,16.40
2013,07,22,09,34,16.60
2013,07,22,09,35,16.60
2013,07,22,09,36,16.60
2013,07,22,09,37,16.70
2013,07,22,09,38,16.70
2013,07,22,09,39,16.70
2013,07,22,09,40,16.70
2013,07,22,09,41,16.80
2013,07,22,09,42,16.90
2013,07,22,09,43,16.90
2013,07,22,09,44,17.00
2013,07,22,09,45,17.10
2013,07,22,09,46,17.10
2013,07,22,09,47,17.20
2013,07,22,09,48,17.30
2013,07,22,09,49,17.40
2013,07,22,09,50,17.50
2013,07,22,09,51,17.50
2013,07,22,09,52,17.60
2013,07,22,09,53,17.60
2013,07,22,09,54,17.70
2013,07,22,09,55,17.70
2013,07,22,09,56,17.90
2013,07,22,09,57,18.00
2013,07,22,09,58,18.10
2013,07,22,09,59,18.20
2013,07,22,10,00,18.20
2013,07,22,10,01,18.30
2013,07,22,10,02,18.20
2013,07,22,10,03,18.10
2013,07,22,10,04,18.10
2013,07,22,10,05,18.00
2013,07,22,10,06,18.00
2013,07,22,10,07,18.10
2013,07,22,10,08,18.10
2013,07,22,10,09,18.00
2013,07,22,10,10,18.00
2013,07,22,10,11,18.10
2013,07,22,10,12,17.90
2013,07,22,10,13,17.90
2013,07,22,10,14,17.90
2013,07,22,10,15,17.90
2013,07,22,10,16,17.90
2013,07,22,10,17,17.90
2013,07,22,10,18,17.90
2013,07,22,10,19,17.90
2013,07,22,10,20,17.90
2013,07,22,10,21,17.90
2013,07,22,10,22,18.00
2013,07,22,10,23,18.00
2013,07,22,10,24,17.90
2013,07,22,10,25,17.90
2013,07,22,10,26,17.80
2013,07,22,10,27,17.70
2013,07,22,10,28,17.80
2013,07,22,10,29,17.90
2013,07,22,10,30,17.90
2013,07,22,10,31,17.90
2013,07,22,10,32,17.90
2013,07,22,10,33,17.80
2013,07,22,10,34,17.60
2013,07,22,10,35,17.60
2013,07,22,10,36,17.50
2013,07,22,10,37,17.50
2013,07,22,10,38,17.40
2013,07,22,10,39,17.40
2013,07,22,10,40,17.30
2013,07,22,10,41,17.20
2013,07,22,10,42,17.10
2013,07,22,10,43,17.00
2013,07,22,10,44,17.00
2013,07,22,10,45,17.00
2013,07,22,10,46,17.00
2013,07,22,10,47,17.10
2013,07,22,10,48,17.10
2013,07,22,10,49,17.20
2013,07,22,10,50,17.30
2013,07,22,10,51,17.30
2013,07,22,10,52,17.30
2013,07,22,10,53,17.10
2013,07,22,10,54,17.00
2013,07,22,10,55,17.10
2013,07,22,10,56,17.10
2013,07,22,10,57,17.30
2013,07,22,10,58,17.20
2013,07,22,10,59,17.20
2013,07,22,11,00,17.20
2013,07,22,11,01,17.10
2013,07,22,11,02,17.20
2013,07,22,11,03,17.20
2013,07,22,11,04,17.20
2013,07,22,11,05,17.20
2013,07,22,11,06,17.20
2013,07,22,11,07,17.30
2013,07,22,11,08,17.20
2013,07,22,11,09,17.20
2013,07,22,11,10,17.20
2013,07,22,11,11,17.10
2013,07,22,11,12,16.90
2013,07,22,11,13,16.80
2013,07,22,11,14,16.90
2013,07,22,11,15,16.90
2013,07,22,11,16,16.90
2013,07,22,11,17,16.90
2013,07,22,11,18,16.80
2013,07,22,11,19,16.50
2013,07,22,11,20,16.30
2013,07,22,11,21,16.20
2013,07,22,11,22,16.10
2013,07,22,11,23,16.00
2013,07,22,11,24,15.90
2013,07,22,11,25,15.80
2013,07,22,11,26,15.70
2013,07,22,11,27,15.70
2013,07,22,11,28,15.70
2013,07,22,11,29,15.80
2013,07,22,11,30,15.80
2013,07,22,11,31,15.80
2013,07,22,11,32,15.80
2013,07,22,11,33,15.90
2013,07,22,11,34,16.00
2013,07,22,11,35,16.20
2013,07,22,11,36,16.20
2013,07,22,11,37,16.30
2013,07,22,11,38,16.40
2013,07,22,11,39,16.30
2013,07,22,11,40,16.20
2013,07,22,11,41,16.20
2013,07,22,11,42,16.30
2013,07,22,11,43,16.30
2013,07,22,11,44,16.30
2013,07,22,11,45,16.30
2013,07,22,11,46,16.40
2013,07,22,11,47,16.40
2013,07,22,11,48,16.40
2013,07,22,11,49,16.40
2013,07,22,11,50,16.40
2013,07,22,11,51,16.40
2013,07,22,11,52,16.40
2013,07,22,11,53,16.40
2013,07,22,11,54,16.40
2013,07,22,11,55,16.50
2013,07,22,11,56,16.60
2013,07,22,11,57,16.70
2013,07,22,11,58,16.80
2013,07,22,11,59,16.90
2013,07,22,12,00,17.00
2013,07,22,12,01,17.10
2013,07,22,12,02,17.30
2013,07,22,12,03,17.20
2013,07,22,12,04,17.20
2013,07,22,12,05,17.10
2013,07,22,12,06,17.10
2013,07,22,12,07,17.10
2013,07,22,12,08,17.10
2013,07,22,12,09,17.10
2013,07,22,12,10,17.10
2013,07,22,12,11,17.20
2013,07,22,12,12,17.20
2013,07,22,12,13,17.00
2013,07,22,12,14,17.00
2013,07,22,12,15,17.10
2013,07,22,12,16,17.10
2013,07,22,12,17,17.20
2013,07,22,12,18,17.20
2013,07,22,12,19,17.30
2013,07,22,12,20,17.30
2013,07,22,12,21,17.30
2013,07,22,12,22,17.30
2013,07,22,12,23,17.30
2013,07,22,12,24,17.30
2013,07,22,12,25,17.40
2013,07,22,12,26,17.50
2013,07,22,12,27,17.50
2013,07,22,12,28,17.40
2013,07,22,12,29,17.40
2013,07,22,12,30,17.30
2013,07,22,12,31,17.30
2013,07,22,12,32,17.40
2013,07,22,12,33,17.40
2013,07,22,12,34,17.40
2013,07,22,12,35,17.40
2013,07,22,12,36,17.50
2013,07,22,12,37,17.50
2013,07,22,12,38,17.50
2013,07,22,12,39,17.60
2013,07,22,12,40,17.60
2013,07,22,12,41,17.60
2013,07,22,12,42,17.70
2013,07,22,12,43,17.70
2013,07,22,12,44,17.80
2013,07,22,12,45,17.80
2013,07,22,12,46,17.60
2013,07,22,12,47,17.40
2013,07,22,12,48,17.30
2013,07,22,12,49,17.50
2013,07,22,12,50,17.60
2013,07,22,12,51,17.50
2013,07,22,12,52,17.60
2013,07,22,12,53,17.50
2013,07,22,12,54,17.40
2013,07,22,12,55,17.30
2013,07,22,12,56,17.30
2013,07,22,12,57,17.40
2013,07,22,12,58,17.60
2013,07,22,12,59,17.70
2013,07,22,13,00,17.80
2013,07,22,13,01,17.90
2013,07,22,13,02,17.70
2013,07,22,13,03,17.50
2013,07,22,13,04,17.50
2013,07,22,13,05,17.50
2013,07,22,13,06,17.70
2013,07,22,13,07,17.80
2013,07,22,13,08,17.80
2013,07,22,13,09,17.90
2013,07,22,13,10,18.10
2013,07,22,13,11,18.20
2013,07,22,13,12,18.10
2013,07,22,13,13,17.90
2013,07,22,13,14,17.90
2013,07,22,13,15,18.00
2013,07,22,13,16,18.20
2013,07,22,13,17,18.00
2013,07,22,13,18,17.90
2013,07,22,13,19,17.80
2013,07,22,13,20,17.80
2013,07,22,13,21,17.80
2013,07,22,13,22,17.90
2013,07,22,13,23,18.00
2013,07,22,13,24,18.10
2013,07,22,13,25,18.20
2013,07,22,13,26,18.40
2013,07,22,13,27,18.50
2013,07,22,13,28,18.60
2013,07,22,13,29,18.70
2013,07,22,13,30,18.80
2013,07,22,13,31,18.90
2013,07,22,13,32,18.90
2013,07,22,13,33,18.90
2013,07,22,13,34,18.90
2013,07,22,13,35,18.90
2013,07,22,13,36,18.90
2013,07,22,13,37,19.10
2013,07,22,13,38,19.10
2013,07,22,13,39,19.10
2013,07,22,13,40,19.00
2013,07,22,13,41,18.90
2013,07,22,13,42,18.90
2013,07,22,13,43,18.70
2013,07,22,13,44,18.70
2013,07,22,13,45,18.90
2013,07,22,13,46,18.90
2013,07,22,13,47,18.90
2013,07,22,13,48,18.80
2013,07,22,13,49,18.80
2013,07,22,13,50,18.80
2013,07,22,13,51,18.90
2013,07,22,13,52,18.90
2013,07,22,13,53,18.90
2013,07,22,13,54,19.10
2013,07,22,13,55,19.10
2013,07,22,13,56,19.10
2013,07,22,13,57,18.90
2013,07,22,13,58,19.00
2013,07,22,13,59,19.10
2013,07,22,14,00,19.30
2013,07,22,14,01,19.30
2013,07,22,14,02,19.50
2013,07,22,14,03,19.60
2013,07,22,14,04,19.60
2013,07,22,14,05,19.60
2013,07,22,14,06,19.70
2013,07,22,14,07,19.80
2013,07,22,14,08,19.80
2013,07,22,14,09,19.80
2013,07,22,14,10,19.70
2013,07,22,14,11,19.60
2013,07,22,14,12,19.50
2013,07,22,14,13,19.60
2013,07,22,14,14,19.60
2013,07,22,14,15,19.70
2013,07,22,14,16,19.90
2013,07,22,14,17,19.90
2013,07,22,14,18,19.90
2013,07,22,14,19,19.90
2013,07,22,14,20,19.90
2013,07,22,14,21,20.00
2013,07,22,14,22,20.10
2013,07,22,14,23,20.10
2013,07,22,14,24,20.20
2013,07,22,14,25,20.20
2013,07,22,14,26,20.00
2013,07,22,14,27,20.00
2013,07,22,14,28,20.10
2013,07,22,14,29,20.20
2013,07,22,14,30,20.20
2013,07,22,14,31,20.20
2013,07,22,14,32,20.10
2013,07,22,14,33,19.90
2013,07,22,14,34,20.00
2013,07,22,14,35,20.20
2013,07,22,14,36,20.20
2013,07,22,14,37,20.20
2013,07,22,14,38,20.30
2013,07,22,14,39,20.40
2013,07,22,14,40,20.40
2013,07,22,14,41,20.30
2013,07,22,14,42,20.40
2013,07,22,14,43,20.50
2013,07,22,14,44,20.50
2013,07,22,14,45,20.50
2013,07,22,14,46,20.50
2013,07,22,14,47,20.50
2013,07,22,14,48,20.40
2013,07,22,14,49,20.50
2013,07,22,14,50,20.60
2013,07,22,14,51,20.70
2013,07,22,14,52,20.40
2013,07,22,14,53,20.20
2013,07,22,14,54,20.10
2013,07,22,14,55,20.20
2013,07,22,14,56,20.30
2013,07,22,14,57,20.40
2013,07,22,14,58,20.50
2013,07,22,14,59,20.50
2013,07,22,15,00,20.50
2013,07,22,15,01,20.50
2013,07,22,15,02,20.60
2013,07,22,15,03,20.60
2013,07,22,15,04,20.60
2013,07,22,15,05,20.70
2013,07,22,15,06,20.80
2013,07,22,15,07,20.70
2013,07,22,15,08,20.60
2013,07,22,15,09,20.60
2013,07,22,15,10,20.60
2013,07,22,15,11,20.60
2013,07,22,15,12,20.60
2013,07,22,15,13,20.50
2013,07,22,15,14,20.50
2013,07,22,15,15,20.60
2013,07,22,15,16,20.60
2013,07,22,15,17,20.60
2013,07,22,15,18,20.60
2013,07,22,15,19,20.70
2013,07,22,15,20,20.60
2013,07,22,15,21,20.70
2013,07,22,15,22,20.70
2013,07,22,15,23,20.60
2013,07,22,15,24,20.70
2013,07,22,15,25,20.80
2013,07,22,15,26,20.90
2013,07,22,15,27,20.90
2013,07,22,15,28,20.80
2013,07,22,15,29,20.70
2013,07,22,15,30,20.60
2013,07,22,15,31,20.60
2013,07,22,15,32,20.60
2013,07,22,15,33,20.60
2013,07,22,15,34,20.60
2013,07,22,15,35,20.70
2013,07,22,15,36,20.80
2013,07,22,15,37,20.80
2013,07,22,15,38,20.80
2013,07,22,15,39,20.80
2013,07,22,15,40,20.80
2013,07,22,15,41,20.80
2013,07,22,15,42,20.80
2013,07,22,15,43,20.80
2013,07,22,15,44,21.00
2013,07,22,15,45,21.00
2013,07,22,15,46,21.00
2013,07,22,15,47,21.10
2013,07,22,15,48,21.10
2013,07,22,15,49,21.10
2013,07,22,15,50,21.10
2013,07,22,15,51,21.20
2013,07,22,15,52,21.10
2013,07,22,15,53,20.90
2013,07,22,15,54,20.90
2013,07,22,15,55,20.90
2013,07,22,15,56,21.00
2013,07,22,15,57,21.10
2013,07,22,15,58,21.10
2013,07,22,15,59,21.20
2013,07,22,16,00,21.10
2013,07,22,16,01,21.00
2013,07,22,16,02,21.00
2013,07,22,16,03,20.90
2013,07,22,16,04,20.90
2013,07,22,16,05,20.90
2013,07,22,16,06,21.00
2013,07,22,16,07,21.10
2013,07,22,16,08,21.10
2013,07,22,16,09,21.20
2013,07,22,16,10,21.20
2013,07,22,16,11,21.10
2013,07,22,16,12,21.10
2013,07,22,16,13,21.10
2013,07,22,16,14,21.20
2013,07,22,16,15,21.30
2013,07,22,16,16,21.20
2013,07,22,16,17,21.30
2013,07,22,16,18,21.30
2013,07,22,16,19,21.30
2013,07,22,16,20,21.50
2013,07,22,16,21,21.60
2013,07,22,16,22,21.60
2013,07,22,16,23,21.60
2013,07,22,16,24,21.70
2013,07,22,16,25,21.70
2013,07,22,16,26,21.70
2013,07,22,16,27,21.70
2013,07,22,16,28,21.70
2013,07,22,16,29,21.70
2013,07,22,16,30,21.70
2013,07,22,16,31,21.70
2013,07,22,16,32,21.60
2013,07,22,16,33,21.60
2013,07,22,16,34,21.60
2013,07,22,16,35,21.60
2013,07,22,16,36,21.60
2013,07,22,16,37,21.60
2013,07,22,16,38,21.60
2013,07,22,16,39,21.60
2013,07,22,16,40,21.60
2013,07,22,16,41,21.60
2013,07,22,16,42,21.60
2013,07,22,16,43,21.70
2013,07,22,16,44,21.90
2013,07,22,16,45,22.00
2013,07,22,16,46,22.00
2013,07,22,16,47,22.00
2013,07,22,16,48,22.00
2013,07,22,16,49,22.10
2013,07,22,16,50,22.30
2013,07,22,16,51,22.30
2013,07,22,16,52,22.40
2013,07,22,16,53,22.50
2013,07,22,16,54,22.50
2013,07,22,16,55,22.40
2013,07,22,16,56,22.30
2013,07,22,16,57,22.20
2013,07,22,16,58,22.10
2013,07,22,16,59,22.10
2013,07,22,17,00,22.10
2013,07,22,17,01,22.10
2013,07,22,17,02,22.00
2013,07,22,17,03,22.10
2013,07,22,17,04,22.20
2013,07,22,17,05,22.40
2013,07,22,17,06,22.50
2013,07,22,17,07,22.60
2013,07,22,17,08,22.50
2013,07,22,17,09,22.50
2013,07,22,17,10,22.50
2013,07,22,17,11,22.50
2013,07,22,17,12,22.50
2013,07,22,17,13,22.40
2013,07,22,17,14,22.30
2013,07,22,17,15,22.10
2013,07,22,17,16,22.00
2013,07,22,17,17,21.80
2013,07,22,17,18,21.80
2013,07,22,17,19,21.80